STARLINK-11574

Satellite information

Favourite Embed

Satellite Type and Status

PAYLOADIN ORBIT

Key statistics

Satellite STARLINK-11574 at a glance.

Uptime

215

Days in orbit

Revolutions

≈ 15.7

Per day

Orbit

LEO

Low Earth Orbit

Inclination

43.0

Latest

Satellite identification and parameters

Extended collection of information and parameters for STARLINK-11574.

Object identification

Identified? True

Debris? False

Object name: STARLINK-11574

International designator: 2025-032F

Object number (NORAD): 63010

Object ID (CCSDS): 63010

Country: UNITED STATES OF AMERICA (US)

Current information (Y/N): Y

RCS size: LARGE

Orbital parameters

Period: 91.665 minutes

Inclination: 43.0024 deg

SMA: 6734.329 km

Apoapsis: 358.118 km

Periapsis: 354.269 km

RAAN: 158.2886 deg

Eccentricy: 0.00028573

Argument of periapsis: 247.9006 deg

Mean anomaly: 112.1559 deg

Mean motion: 15.70946163 rev/day

Mean motion (dot): 0.00204565 rev/day2

B* drag term: 0.0015517551 1/REarth

Two-line elements (TLE)

Creation date: Sept. 18, 2025, 3:57 a.m.

Reference frame: TEME

Reference center: EARTH

Epoch: Sept. 17, 2025, 4:34 p.m. UTC

TLE line 0: 0 STARLINK-11574

TLE line 1: 1 63010U 25032F 25260.69035222 .00204565 00000-0 15518-2 0 9990

TLE line 2: 2 63010 43.0024 158.2886 0002857 247.9006 112.1559 15.70946163 35007

Live tracking on map

Real-time ground track for satellite STARLINK-11574.

In-orbit conjunctions

There are no conjunctions computed for STARLINK-11574, at the moment. Check back to stay up to date, as we update our databases every day.

Go to all conjunctions

Associated space launch

A batch of 21 satellites for the Starlink mega-constellation - SpaceX's project for space-based Internet communication system.

STARLINK-11574 was lifted into orbit during the mission ‘Falcon 9 Block 5 | Starlink Group 12-8’, on board a Falcon 9 space rocket.

The launch took place on Feb. 15, 2025, 6:14 a.m. from Space Launch Complex 40.

For more information about the launch, click the button.

Launch to space Falcon 9 Block 5 | Starlink Group 12-8
Falcon 9 Block 5 | Starlink Group 12-8

Agency: SpaceX

Status: Launch Successful

Launch date: Feb. 15, 2025, 6:14 a.m. UTC

Rocket: Falcon 9

Launch pad: Space Launch Complex 40

Location: Cape Canaveral SFS, FL, USA

...

Latest news about this satellite

News about space launch
Live coverage: SpaceX to launch 21 Starlink satellites on Falcon 9 rocket from Cape Canaveral

The Starlink 12-8 mission will be SpaceX’s 20 orbital launch of the year and send 21 Starlink satellites to low Earth orbit. Liftoff is set for 1:14 a.m. EST (0614 UTC).

News about space launch
Launch Roundup: Starlink and CZ-8A launches planned; Falcon booster to land in Bahamas

China will be conducting the debut flight of an upgraded version of the Chang Zheng… The post Launch Roundup: Starlink and CZ-8A launches planned; Falcon booster to land in Bahamas appeared first on NASASpaceFlight.com.


Newsletter sign-up

Weekly statistics, charts and insights to help you stay on top of the space industry.